Погода в Песках

Россия / Курганская область     54°37′15″N   63°15′31″E
темп.,
°C
ветер,
м/с
пор.,
м/с
влажн.,
%
обл.,
%
осадки,
мм/ч
давл.,
гПа
погр.,
м
17 июня, чт
чт1723:00+20св226555 0.0 101312
02:00+20вюв3356100 0.0 101122
05:00+20ссз3355100 0.1 101156
08:00+24ссз114658 0.0 1010268
11:00+28ю4537100 0.0 1007698
14:00+32юз592787 0.0 10051834
17:00+32зюз714277 0.0 10023534
20:00+19сз101679100 0.5 1005626
18 июня, пт
пт1823:00+17с2491100 3.4 1005186
02:00+17ссз51093100 0.1 1005669
05:00+15ссз8138342 0.2 1007567
08:00+14с9127280 0.1 1010658
11:00+18с9114832 0.2 10111754
14:00+18ссз912415 0.0 10141965
17:00+18ссз1011378 0.0 10152611
20:00+16ссз610464 0.0 1016652
19 июня, сб
сб1923:00+11сз47580 0.0 1018109
02:00+10сз496481 0.0 1019169
05:00+9сз49675 0.0 1020155
08:00+15сз585184 0.0 1020481
11:00+19сз7938100 0.0 10192342
14:00+13зсз61066100 0.1 1019980
17:00+12з51287100 1.2 1017806
20:00+13з3884100 0.3 1015258
20 июня, вс
вс2023:00+14сз4991100 0.3 1015436
02:00+13зсз379599 0.0 1014250
05:00+14зсз2697100 0.0 1012188
08:00+16зсз4996100 0.6 1012473
11:00+20зсз698169 1.0 1010853
14:00+24сз10125299 0.9 10092045
17:00+25ссз9134496 0.9 10092572
20:00+20с9134966 0.0 1012981
21 июня, пн
пн2123:00+13ссз47604 0.0 1014100
02:00+14ссз716510 0.0 1014516
05:00+12ссз614530 0.0 1016479
08:00+14с914490 0.0 10171167
11:00+17ссз911490 0.0 10171429
14:00+19с8104698 0.0 10182079
17:00+18ссв5105399 0.0 10181316
20:00+17с355727 0.0 1018119